Date String (YYYY-MM-DD hh:mm:ss) UTC,Instrument flags,Ambient pressure (hPa),Sample flow (lpm),Bypass flow (lpm),Sample temperature (°C),Ambient temperature (°C),ASC tube jacket temperature (°C),LED temperature (°C),Box temperature (°C),Sample RH (%),Span deviation,Mass concentration (μg/m³),Mass concentration (μg/m³),Mass concentration (μg/m³)
DateTimeUTC,F1_M11,P_M11,Q1_M11,Q2_M11,T1_M11,T2_M11,T3_M11,T4_M11,T5_M11,U1_M11,ZSPAN_M11,X2_M11,X0_M11,X1_M11
2021-12-24 07:00:00,,0809.1,5.01,0.00,24.5,23.7,00.0,33.5,26.2,20.8,0000.0,0000.27,0000.56,0000.17
2021-12-24 07:01:00,,0809.0,5.01,0.00,24.5,23.7,00.0,33.5,26.2,20.8,0000.0,0000.25,0000.52,0000.17
2021-12-24 07:02:00,,0809.1,4.99,0.00,24.5,23.7,00.0,33.5,26.2,20.8,0000.0,0000.26,0000.53,0000.17
2021-12-24 07:03:00,,0809.2,5.01,0.00,24.5,23.7,00.0,33.5,26.2,20.9,0000.0,0000.26,0000.53,0000.18
2021-12-24 07:04:00,,0809.2,4.98,0.00,24.5,23.7,00.0,33.5,26.2,20.9,0000.0,0000.27,0000.55,0000.18
2021-12-24 07:05:00,,0809.2,4.99,0.00,24.5,23.7,00.0,33.5,26.3,20.9,0000.0,0000.28,0000.56,0000.18
2021-12-24 07:06:00,,0809.2,5.00,0.00,24.5,23.6,00.0,33.5,26.2,20.9,0000.0,0000.26,0000.51,0000.18
2021-12-24 07:07:00,,0809.2,5.00,0.00,24.5,23.6,00.0,33.5,26.2,20.9,0000.0,0000.25,0000.39,0000.19
2021-12-24 07:08:00,,0809.2,4.99,0.00,24.5,23.6,00.0,33.5,26.2,21.0,0000.0,0000.25,0000.38,0000.19
2021-12-24 07:09:00,,0809.3,5.01,0.00,24.5,23.6,00.0,33.5,26.2,21.0,0000.0,0000.26,0000.53,0000.19
2021-12-24 07:10:00,,0809.2,5.00,0.00,24.5,23.7,00.0,33.5,26.3,21.0,0000.0,0000.27,0000.65,0000.20
2021-12-24 07:11:00,,0809.2,4.99,0.00,24.5,23.7,00.0,33.5,26.2,21.1,0000.0,0000.27,0000.63,0000.20
2021-12-24 07:12:00,,0809.2,5.01,0.00,24.5,23.7,00.0,33.5,26.3,21.1,0000.0,0000.26,0000.63,0000.19
2021-12-24 07:13:00,,0809.2,4.99,0.00,24.5,23.7,00.0,33.5,26.3,21.1,0000.0,0000.25,0000.61,0000.19
2021-12-24 07:14:00,,0809.2,5.00,0.00,24.5,23.7,00.0,33.5,26.3,21.1,0000.0,0000.25,0000.59,0000.19
2021-12-24 07:15:00,,0809.3,4.99,0.00,24.5,23.7,00.0,33.5,26.3,21.1,0000.0,0000.22,0000.55,0000.18
2021-12-24 07:16:00,,0809.2,5.00,0.00,24.5,23.7,00.0,33.5,26.3,21.1,0000.0,0000.23,0000.56,0000.17
2021-12-24 07:17:00,,0809.3,5.01,0.00,24.5,23.7,00.0,33.5,26.3,21.1,0000.0,0000.23,0000.56,0000.17
2021-12-24 07:18:00,,0809.2,5.00,0.00,24.5,23.7,00.0,33.5,26.3,21.1,0000.0,0000.22,0000.54,0000.16
2021-12-24 07:19:00,,0809.2,5.00,0.00,24.6,23.6,00.0,33.5,26.3,21.2,0000.0,0000.21,0000.53,0000.16
2021-12-24 07:20:00,,0809.2,4.99,0.00,24.6,23.6,00.0,33.5,26.3,21.2,0000.0,0000.21,0000.41,0000.16
2021-12-24 07:21:00,,0809.2,5.01,0.00,24.6,23.6,00.0,33.5,26.3,21.2,0000.0,0000.18,0000.23,0000.15
2021-12-24 07:22:00,,0809.2,5.00,0.00,24.6,23.7,00.0,33.5,26.3,21.2,0000.0,0000.18,0000.23,0000.15
2021-12-24 07:23:00,,0809.2,4.99,0.00,24.6,23.7,00.0,33.5,26.3,21.2,0000.0,0000.19,0000.24,0000.15
2021-12-24 07:24:00,,0809.2,5.00,0.00,24.6,23.7,00.0,33.5,26.3,21.2,0000.0,0000.19,0000.25,0000.15
2021-12-24 07:25:00,,0809.1,5.01,0.00,24.6,23.7,00.0,33.5,26.3,21.2,0000.0,0000.19,0000.28,0000.15
2021-12-24 07:26:00,,0809.1,4.98,0.00,24.6,23.7,00.0,33.5,26.3,21.2,0000.0,0000.21,0000.32,0000.15
2021-12-24 07:27:00,,0809.0,5.02,0.00,24.6,23.7,00.0,33.5,26.3,21.2,0000.0,0000.19,0000.29,0000.15
2021-12-24 07:28:00,,0809.0,5.00,0.00,24.6,23.7,00.0,33.5,26.3,21.3,0000.0,0000.18,0000.28,0000.15
2021-12-24 07:29:00,,0809.1,5.01,0.00,24.6,23.7,00.0,33.6,26.3,21.2,0000.0,0000.19,0000.29,0000.15
2021-12-24 07:30:00,,0809.1,4.99,0.00,24.6,23.6,00.0,33.6,26.3,21.3,0000.0,0000.19,0000.30,0000.15
2021-12-24 07:31:00,,0809.1,5.00,0.00,24.6,23.7,00.0,33.6,26.3,21.2,0000.0,0000.19,0000.28,0000.15
2021-12-24 07:32:00,,0809.1,5.00,0.00,24.6,23.7,00.0,33.6,26.3,21.2,0000.0,0000.20,0000.30,0000.15
2021-12-24 07:33:00,,0809.1,5.02,0.00,24.6,23.7,00.0,33.6,26.3,21.3,0000.0,0000.21,0000.31,0000.16
2021-12-24 07:34:00,,0809.0,4.99,0.00,24.6,23.7,00.0,33.6,26.3,21.3,0000.0,0000.20,0000.30,0000.16
2021-12-24 07:35:00,,0809.1,5.00,0.00,24.6,23.7,00.0,33.6,26.3,21.4,0000.0,0000.21,0000.31,0000.16
2021-12-24 07:36:00,,0809.1,4.99,0.00,24.6,23.7,00.0,33.6,26.3,21.3,0000.0,0000.21,0000.29,0000.17
2021-12-24 07:37:00,,0809.1,5.00,0.00,24.6,23.7,00.0,33.6,26.3,21.3,0000.0,0000.21,0000.29,0000.17
2021-12-24 07:38:00,,0809.1,5.00,0.00,24.6,23.7,00.0,33.6,26.3,21.3,0000.0,0000.21,0000.29,0000.17
2021-12-24 07:39:00,,0809.1,5.01,0.00,24.6,23.7,00.0,33.6,26.3,21.4,0000.0,0000.21,0000.29,0000.17
2021-12-24 07:40:00,,0809.1,4.99,0.00,24.6,23.7,00.0,33.6,26.3,21.4,0000.0,0000.22,0000.33,0000.17
2021-12-24 07:41:00,,0809.0,5.00,0.00,24.6,23.8,00.0,33.6,26.3,21.4,0000.0,0000.22,0000.33,0000.17
2021-12-24 07:42:00,,0809.0,5.00,0.00,24.6,23.8,00.0,33.6,26.3,21.4,0000.0,0000.23,0000.36,0000.16
2021-12-24 07:43:00,,0809.0,5.00,0.00,24.6,23.8,00.0,33.6,26.3,21.4,0000.0,0000.23,0000.36,0000.17
2021-12-24 07:44:00,,0809.0,5.00,0.00,24.6,23.8,00.0,33.6,26.4,21.4,0000.0,0000.22,0000.34,0000.17
2021-12-24 07:45:00,,0809.0,5.00,0.00,24.6,23.8,00.0,33.6,26.4,21.5,0000.0,0000.22,0000.34,0000.17
2021-12-24 07:46:00,,0808.9,4.99,0.00,24.6,23.8,00.0,33.6,26.4,21.5,0000.0,0000.22,0000.36,0000.17
2021-12-24 07:47:00,,0808.9,5.00,0.00,24.6,23.8,00.0,33.6,26.4,21.6,0000.0,0000.23,0000.39,0000.17
2021-12-24 07:48:00,,0808.9,5.01,0.00,24.6,23.8,00.0,33.6,26.4,21.6,0000.0,0000.22,0000.35,0000.17
2021-12-24 07:49:00,,0808.9,5.00,0.00,24.6,23.8,00.0,33.6,26.4,21.7,0000.0,0000.22,0000.35,0000.17
2021-12-24 07:50:00,,0809.0,5.00,0.00,24.7,23.8,00.0,33.6,26.4,21.7,0000.0,0000.23,0000.36,0000.17
2021-12-24 07:51:00,,0809.0,5.00,0.00,24.7,23.8,00.0,33.6,26.5,21.6,0000.0,0000.21,0000.32,0000.17
2021-12-24 07:52:00,,0809.0,5.01,0.00,24.7,23.8,00.0,33.6,26.4,21.5,0000.0,0000.21,0000.32,0000.18
2021-12-24 07:53:00,,0809.0,4.99,0.00,24.7,23.8,00.0,33.6,26.4,21.4,0000.0,0000.20,0000.28,0000.18
2021-12-24 07:54:00,,0809.0,5.00,0.00,24.7,23.9,00.0,33.6,26.4,21.3,0000.0,0000.19,0000.27,0000.17
2021-12-24 07:55:00,,0808.9,5.01,0.00,24.7,23.9,00.0,33.6,26.4,21.2,0000.0,0000.19,0000.26,0000.16
2021-12-24 07:56:00,,0808.9,5.01,0.00,24.6,23.8,00.0,33.6,26.4,21.4,0000.0,0000.18,0000.25,0000.16
2021-12-24 07:57:00,,0808.9,5.01,0.00,24.6,23.8,00.0,33.6,26.4,21.6,0000.0,0000.17,0000.23,0000.15
2021-12-24 07:58:00,,0808.9,4.99,0.00,24.6,23.8,00.0,33.6,26.3,21.7,0000.0,0000.16,0000.18,0000.15
2021-12-24 07:59:00,,0808.9,5.00,0.00,24.6,23.8,00.0,33.6,26.3,21.8,0000.0,0000.15,0000.18,0000.15
